sat.trackr.live / text

‹ back to catalog

GREGOIRE

NORAD 56946 · 2023-084Q

PAYLOAD ACTIVE UNKNOWN

§ Identity

Operator
Country
BEL
Launch date
2023-06-12
Launch site
AFWTR
Launch vehicle
Mass (kg)
RCS (m²)

External: N2YO · Heavens-Above · Gunter

§ Orbital elements

Epoch: 2026-09-21T21:20:46.621536Z

Period
93.52 min
Inclination
97.6367°
Eccentricity
0.0005280
Mean motion
15.39771413 rev/d
Perigee alt
443.2 km
Apogee alt
450.4 km
Semi-major
6,824.9 km
B*
1.6089e-4
RAAN
52.7205°
Arg perigee
343.3609°
Mean anomaly
16.7462°
Rev number
18,258

§ Raw data

GREGOIRE1 56946U 23084Q   26264.88942849  .00006283  00000+0  16089-3 0  99942 56946  97.6367  52.7205 0005280 343.3609  16.7462 15.39771413182585

JSON: /api/v1/satellites/56946 · /tle

For live sub-satellite position, see the globe view (requires WebGL).

§ Visibility from observer

Set your observer location to see the next 7 days of passes ≥ 10°. The values pass through the URL so the page stays shareable.

No JS? Fill the form by hand. The geolocation button needs JavaScript.

§ Radio — SatNOGS DB

ModeDescriptionDownlinkUplink
FM Mode S - Transmitter 2.223 GHz
FM Mode X - Transmitter 8.320 GHz

2 transmitters · refreshed weekly from db.satnogs.org